Tucson, Arizona, United States (85701)
Lat: 32.22N, Lon: 110.93W
Wx Zone: AZZ504
Local Info
Past Weather Observations for Wednesday, April 16, 2014

NOTE: This archive is for the closest National Weather Service station to Tucson. Information may differ from the station used for current weather conditions.

Time Weather Temperature Dewpoint Humidity Pressure Winds Precip Visibility
23:58
Clear
68°F / 20°C 25°F / -4°C 20% 29.92 in
(1013 mb)
SSE 10.4 mph
(SSE 17 kph)
- 10SM
22:58
Clear
68°F / 20°C 10°F / -12°C 10% 29.89 in
(1012 mb)
SSE 8.1 mph
(SSE 13 kph)
- 10SM
21:58
Clear
68°F / 20°C 12°F / -11°C 11% 29.86 in
(1011 mb)
SW 8.1 mph
(SW 13 kph)
- 10SM
20:58
Clear
73°F / 23°C 12°F / -11°C 9% 29.8 in
(1009 mb)
W 8.1 mph
(W 13 kph)
- 10SM
19:58
Clear
77°F / 25°C 9°F / -13°C 7% 29.8 in
(1009 mb)
SSW 6.9 mph
(SSW 11 kph)
- 10SM
18:58
Clear
81°F / 27°C 10°F / -12°C 7% 29.77 in
(1008 mb)
WNW 9.2 mph
(WNW 15 kph)
- 10SM
18:08
Clear
84°F / 29°C 10°F / -12°C 6% 29.77 in
(1008 mb)
WNW 11.5 mph
(WNW 19 kph)
- 10SM
17:58
Clear
84°F / 29°C 10°F / -12°C 6% 29.77 in
(1008 mb)
WNW 13.8 mph
(WNW 22 kph)
- 10SM
16:58
Clear
86°F / 30°C 7°F / -14°C 5% 29.77 in
(1008 mb)
NW 15 mph
(NW 24 kph)
- 10SM
15:58
Clear
86°F / 30°C 12°F / -11°C 6% 29.74 in
(1007 mb)
W 18.4 mph
(W 30 kph)
- 10SM
15:57
Clear
86°F / 30°C 12°F / -11°C 6% 29.74 in
(1007 mb)
WNW 19.6 mph
(WNW 32 kph)
- 10SM
15:56
Clear
86°F / 30°C 12°F / -11°C 6% 29.74 in
(1007 mb)
NNW 15 mph
(NNW 24 kph)
- 10SM
14:58
Clear
86°F / 30°C 9°F / -13°C 5% 29.77 in
(1008 mb)
NW 17.3 mph
(NW 28 kph)
- 10SM
14:01
Clear
86°F / 30°C 9°F / -13°C 5% 29.8 in
(1009 mb)
NW 13.8 mph
(NW 22 kph)
- 10SM
13:58
Clear
86°F / 30°C 7°F / -14°C 5% 29.8 in
(1009 mb)
Variable 6.9 mph
(Variable 11 kph)
- 10SM
13:26
Clear
84°F / 29°C 7°F / -14°C 5% 29.8 in
(1009 mb)
SSW 11.5 mph
(SSW 19 kph)
- 10SM
12:58
Clear
82°F / 28°C 9°F / -13°C 6% 29.8 in
(1009 mb)
W 5.8 mph
(W 9 kph)
- 10SM
11:58
Clear
81°F / 27°C 9°F / -13°C 6% 29.83 in
(1010 mb)
Variable 4.6 mph
(Variable 7 kph)
0.00 in
(0.00 mm)
10SM
10:58
Clear
79°F / 26°C 5°F / -15°C 6% 29.86 in
(1011 mb)
Variable 2.3 mph
(Variable 4 kph)
- 10SM
09:58
Clear
77°F / 25°C 9°F / -13°C 7% 29.86 in
(1011 mb)
S 3.5 mph
(S 6 kph)
- 10SM
08:58
Clear
73°F / 23°C 9°F / -13°C 8% 29.86 in
(1011 mb)
E 4.6 mph
(E 7 kph)
0.00 in
(0.00 mm)
10SM
07:58
Clear
64°F / 18°C 14°F / -10°C 14% 29.86 in
(1011 mb)
SE 8.1 mph
(SE 13 kph)
- 10SM
06:58
Clear
57°F / 14°C 12°F / -11°C 17% 29.86 in
(1011 mb)
NE 6.9 mph
(NE 11 kph)
- 10SM
05:58
Clear
57°F / 14°C 10°F / -12°C 15% 29.83 in
(1010 mb)
SE 8.1 mph
(SE 13 kph)
- 10SM
04:58
Clear
55°F / 13°C 12°F / -11°C 18% 29.83 in
(1010 mb)
SE 11.5 mph
(SE 19 kph)
- 10SM
03:58
Clear
55°F / 13°C 12°F / -11°C 18% 29.83 in
(1010 mb)
SE 10.4 mph
(SE 17 kph)
- 10SM
02:58
Clear
55°F / 13°C 10°F / -12°C 16% 29.83 in
(1010 mb)
SSE 8.1 mph
(SSE 13 kph)
- 10SM
01:58
Clear
55°F / 13°C 12°F / -11°C 18% 29.83 in
(1010 mb)
SE 9.2 mph
(SE 15 kph)
- 10SM
00:58
Clear
59°F / 15°C 12°F / -11°C 16% 29.86 in
(1011 mb)
SSE 4.6 mph
(SSE 7 kph)
- 10SM
Time Weather Temperature Dewpoint Humidity Pressure Winds Precip Visibility


Weather for websites

WeatherForYou.com, LLC is not responsible for any damages or problems caused by this service. Current weather conditions are obtained from the closest station including government and personal stations which may have varying degrees of accuracy. Weather forecasts are derived from the NOAA NDFD. Like all things, this site belongs to Jesus Christ... He just trusts me to maintain it. If you have any questions or comments email webmaster@weatherforyou.com

Copyright © 2014, WeatherForYou.com LLC. All rights reserved.